Theta_e
312 313 313 313 317 320 322 321 318 321 319 313 313 314 316 320 322 321 323 330 331 328 328 327 333 343 348 352 355 355 354 361 362 356 359 356 346 348 348 344 336 330 327 323 324 323 322 320 318 323 331 336 337 336 336 336 333 334 336 332 327 326 326 333 340 341 342 342 342 343 343 343 342 343 343 343 343 343 343 343 343 342 341 340 340 339 338 337 338 339 338 335 332 332 330 326 321
312 312 313 314 317 320 323 321 317 317 315 310 313 315 317 321 322 321 324 331 330 328 330 328 337 346 349 350 352 355 355 356 355 356 353 348 346 346 345 341 333 331 327 322 322 321 325 325 320 324 331 334 335 334 335 334 333 335 335 330 326 327 331 338 341 342 342 342 342 343 343 343 343 343 343 343 343 343 343 343 342 341 342 341 340 340 339 338 338 339 337 335 333 334 332 327 319
311 312 312 316 320 321 322 321 317 313 312 311 313 317 319 320 320 321 324 329 330 328 331 328 332 340 348 353 353 358 357 352 350 349 347 347 347 344 341 336 332 332 327 321 321 320 325 326 323 326 330 331 332 332 333 334 335 335 332 328 327 332 338 341 341 342 342 343 343 342 342 342 342 342 342 343 342 343 342 342 341 341 341 340 340 339 339 338 338 338 335 332 333 333 331 325 317
311 312 312 316 321 320 320 320 319 314 311 311 312 318 320 320 320 322 325 329 329 327 328 326 335 341 351 357 352 355 356 351 351 348 348 348 346 344 340 334 332 330 326 321 320 320 324 327 325 327 329 330 331 331 334 335 335 333 329 327 330 337 341 341 342 343 343 343 343 342 342 342 342 341 341 342 342 342 342 342 342 342 341 341 340 340 339 339 338 335 330 329 331 331 329 324 316
311 314 315 316 319 320 320 318 319 314 312 313 312 319 321 321 321 322 326 328 325 327 326 322 339 348 349 352 351 355 356 351 350 348 349 348 345 344 339 334 331 330 327 322 319 320 326 329 326 325 327 329 331 331 333 335 332 330 327 328 334 340 341 342 343 344 344 343 343 342 342 341 342 341 341 342 341 342 342 342 341 341 341 340 338 337 337 335 332 329 328 330 329 329 328 322 316
314 317 318 317 318 319 317 315 315 313 315 317 315 318 320 320 321 321 324 325 323 326 325 327 341 348 347 345 348 352 353 351 350 349 349 347 345 342 337 333 333 335 331 323 320 319 327 330 326 324 324 326 330 331 332 332 330 328 328 331 338 341 342 343 343 344 344 343 343 343 342 341 341 341 341 341 341 341 341 341 340 340 339 338 336 334 333 330 327 327 329 329 328 329 326 319 318
315 318 320 318 318 318 318 314 313 313 315 319 317 318 319 319 320 320 321 321 324 323 325 340 344 346 348 345 347 348 347 350 351 349 349 346 344 341 338 336 338 340 333 326 319 321 330 329 326 325 323 325 327 329 329 329 329 329 330 335 340 342 343 343 343 344 343 343 343 342 341 341 340 340 340 339 338 338 339 339 338 338 337 336 336 332 329 327 326 329 330 329 329 328 322 316 319
315 318 320 318 318 318 317 315 314 315 316 318 319 319 320 320 320 320 321 320 322 322 324 336 344 350 348 346 350 350 348 351 350 349 349 346 345 342 341 341 341 340 336 327 319 326 333 329 327 327 323 323 325 326 327 328 330 332 335 339 342 343 343 344 343 343 343 343 342 341 339 338 337 336 335 334 334 333 334 335 334 334 333 331 328 327 327 326 327 329 330 328 330 327 319 316 321
316 318 319 316 317 316 314 315 315 316 317 318 318 320 321 321 321 320 321 321 321 322 322 326 341 354 349 347 351 351 351 351 350 349 348 346 345 343 343 342 341 341 336 326 321 329 333 330 329 327 325 323 322 325 326 329 334 338 340 342 343 343 343 343 343 343 342 342 340 338 336 334 332 330 327 326 326 326 327 326 325 326 327 325 319 322 326 326 327 329 329 329 329 327 319 316 323
318 318 318 316 315 313 311 312 314 317 318 319 319 319 321 320 321 321 320 320 321 322 321 329 344 352 349 350 354 354 353 351 350 349 348 347 345 344 344 342 342 341 334 325 323 329 334 335 332 326 324 322 323 326 329 334 339 341 342 343 343 343 343 343 343 343 341 340 337 336 334 333 330 327 322 319 318 318 318 317 316 316 318 319 315 319 326 325 327 330 329 329 330 327 319 317 325
319 318 316 315 313 310 309 311 312 316 317 318 319 319 320 319 320 320 320 321 321 323 321 329 345 350 351 353 356 354 351 350 350 349 348 347 346 346 344 342 343 341 332 325 323 330 337 338 335 328 326 328 331 334 336 340 342 342 343 343 343 343 343 343 342 341 340 338 337 336 335 334 331 327 321 318 317 314 312 311 311 311 312 314 313 318 325 326 327 329 330 329 329 328 322 318 325
319 317 316 314 312 311 311 311 312 316 317 317 318 319 320 319 321 319 320 321 320 324 319 323 344 351 354 356 357 353 351 351 350 349 348 348 347 346 344 343 343 338 330 323 323 332 339 339 338 334 333 337 339 341 341 342 342 343 343 343 343 343 343 342 342 340 339 338 337 336 335 334 332 328 321 317 316 312 309 308 308 309 309 310 312 318 325 326 326 329 330 330 329 329 326 320 323
318 318 316 313 313 313 312 311 312 316 316 317 318 319 320 319 320 319 320 321 320 322 319 332 345 352 356 356 357 354 353 351 349 349 348 348 347 345 344 343 340 333 327 323 325 334 339 339 339 338 338 341 342 342 342 342 342 343 343 343 344 343 342 342 341 340 339 338 338 337 335 332 329 327 321 317 315 312 308 308 308 308 308 308 310 319 325 325 326 329 330 330 329 329 328 325 323
316 317 316 314 314 313 313 311 312 313 312 316 318 318 320 319 320 319 320 319 320 320 323 344 350 354 357 356 358 356 354 351 349 350 348 348 346 345 343 340 337 331 328 326 325 332 338 339 339 339 339 341 342 343 343 343 343 342 343 343 343 342 342 341 341 340 339 338 337 335 334 332 330 328 324 320 317 314 310 308 309 308 308 307 309 318 325 325 325 327 329 330 330 329 329 327 325
316 316 316 315 315 313 313 312 313 311 311 316 317 318 320 319 320 320 321 319 320 319 324 345 351 362 361 356 359 355 352 351 350 349 349 348 346 344 342 339 336 333 332 330 328 332 337 338 339 339 340 341 341 341 342 343 343 343 343 343 343 342 342 341 341 340 339 337 336 335 334 332 330 329 326 322 319 316 313 310 308 308 307 307 308 315 323 325 325 326 328 329 329 329 329 328 327
316 315 315 315 313 312 313 314 314 312 313 317 317 320 320 319 321 319 321 319 321 320 319 331 338 356 358 353 356 352 351 352 350 350 349 347 346 344 342 340 338 337 336 335 334 334 336 337 337 339 340 340 340 340 342 343 343 343 343 343 342 342 341 341 340 340 338 337 335 335 334 332 332 331 327 325 323 319 316 315 310 308 308 307 307 313 322 325 325 325 326 329 329 329 329 329 328
317 315 315 314 313 312 313 315 314 314 316 318 317 320 320 319 321 319 322 319 320 321 320 327 332 347 352 351 352 351 352 351 350 350 348 347 346 344 343 342 341 340 339 338 338 336 337 337 335 337 339 340 340 340 342 343 342 342 343 343 342 341 341 340 340 339 338 337 336 336 336 336 337 337 334 333 332 326 321 319 315 310 308 308 309 313 320 324 325 324 324 326 327 328 329 328 329
316 316 314 312 313 313 315 315 315 316 317 318 318 320 320 319 319 320 321 320 322 320 328 343 347 349 350 351 351 352 352 350 351 349 347 347 346 345 344 343 343 342 341 340 339 338 338 337 336 336 338 339 339 340 341 343 342 342 343 343 342 341 341 340 340 339 338 337 336 337 339 340 340 340 339 338 338 333 326 322 320 316 311 309 311 314 319 323 324 324 325 325 326 327 327 328 329
316 317 314 312 314 315 316 316 316 317 317 318 319 321 320 320 319 321 321 323 324 323 338 352 354 353 351 351 352 352 352 351 350 348 347 346 345 345 344 343 343 342 342 341 340 339 337 337 339 336 336 337 337 338 340 341 342 342 342 342 341 341 340 340 339 339 338 336 336 338 340 340 341 340 339 341 340 335 329 323 321 320 317 315 314 313 316 320 322 322 322 322 323 324 324 326 330
317 317 315 314 314 315 316 316 317 317 317 318 319 321 321 321 320 320 323 326 328 331 347 357 355 354 353 351 351 351 351 351 349 348 347 346 345 345 344 344 343 342 342 341 341 339 337 339 339 337 337 336 336 337 338 340 342 341 341 341 341 341 340 339 339 338 336 336 337 338 339 340 341 340 340 342 339 334 331 326 324 325 326 326 323 317 315 318 323 325 322 322 323 324 324 322 326
317 317 316 315 315 315 315 316 316 317 317 317 319 321 321 321 320 320 320 323 328 331 347 356 354 354 353 351 351 350 350 350 348 348 346 346 345 345 344 344 343 342 343 342 341 339 340 341 340 340 340 337 336 336 337 339 340 340 340 340 340 340 340 339 339 339 338 338 338 337 338 340 341 340 338 338 335 333 335 334 332 332 334 333 330 329 327 328 332 334 331 330 330 329 329 326 326
317 317 317 317 316 315 315 316 317 317 317 316 319 319 320 321 319 322 319 320 325 328 343 353 353 353 353 352 352 350 350 350 349 347 347 347 346 346 346 345 344 343 343 343 342 341 341 341 341 341 340 339 337 334 336 339 338 338 338 339 340 340 340 340 340 340 340 340 338 337 338 337 338 337 333 334 336 336 338 338 337 336 337 337 334 334 335 336 336 335 335 335 335 333 332 331 331
317 317 317 317 316 316 316 316 317 317 317 317 318 318 319 320 318 320 319 321 323 322 341 352 352 351 351 351 351 351 351 351 350 347 345 345 344 345 345 344 345 344 344 344 343 343 343 343 342 342 341 340 336 331 333 335 335 336 337 339 340 340 340 340 340 340 340 340 338 337 336 333 336 336 334 336 337 338 339 340 340 339 339 339 337 335 336 338 338 337 337 336 335 334 333 332 332
316 316 317 317 317 316 317 316 317 316 316 318 318 318 318 318 318 318 319 322 321 325 345 352 351 351 350 350 351 352 351 349 344 340 339 339 338 339 338 338 340 343 345 345 345 344 344 343 342 342 342 338 334 334 334 333 334 337 338 337 338 339 339 339 339 338 338 338 337 335 333 333 337 338 337 337 337 338 340 341 341 340 340 339 338 336 337 338 339 339 338 336 336 335 335 335 334
315 316 316 318 317 317 317 316 316 316 317 320 319 319 318 318 317 317 319 319 327 342 351 352 352 353 352 351 351 348 346 343 337 336 337 337 338 338 336 335 336 339 342 344 345 344 344 344 343 343 342 338 336 338 337 334 335 337 337 336 337 338 339 338 337 338 337 336 336 334 333 337 339 339 338 338 337 338 340 341 340 339 339 339 338 338 338 338 338 338 338 337 338 337 337 337 337
315 316 315 317 318 317 317 316 317 316 317 319 320 320 318 319 317 316 319 319 336 352 352 351 353 353 350 346 344 340 340 341 338 335 336 336 337 338 336 336 337 338 339 341 341 341 341 341 342 342 341 340 339 339 337 336 337 336 336 336 336 337 337 337 337 337 336 333 334 334 335 339 340 339 339 339 339 338 339 341 340 340 340 340 341 340 339 338 337 337 337 337 337 338 338 338 337
315 316 316 317 317 318 317 316 317 316 317 319 320 320 319 320 317 317 320 319 337 351 349 347 348 346 341 337 339 338 337 339 337 336 336 337 337 337 336 337 338 339 339 339 338 338 338 339 341 341 341 340 339 339 338 338 338 336 336 336 336 336 336 336 336 335 334 332 333 336 338 339 339 339 340 340 340 339 339 339 339 340 340 340 341 340 338 337 337 338 338 338 338 339 338 338 338
315 316 316 316 317 317 317 317 317 316 317 319 320 320 319 318 315 317 318 321 337 344 344 344 343 342 338 336 338 337 336 336 336 337 337 337 336 336 337 337 337 338 338 337 337 338 338 338 340 340 340 339 338 338 338 337 337 336 336 335 335 336 336 335 334 334 336 336 336 338 339 339 339 340 340 340 339 338 339 339 339 340 340 340 340 340 339 339 339 339 340 340 340 340 339 339 339
314 315 315 315 316 316 317 317 317 317 317 319 320 318 318 318 318 318 319 331 339 340 341 343 342 340 338 336 336 336 337 337 336 336 336 336 336 337 337 337 337 337 337 337 337 338 338 337 338 338 337 336 336 336 336 336 335 335 336 335 336 337 336 335 335 336 338 339 338 339 339 340 340 340 339 339 339 340 340 340 340 340 340 340 341 341 340 341 341 341 341 341 340 340 340 339 339
314 314 313 314 314 315 317 316 317 317 317 321 318 315 317 316 317 316 321 335 341 341 342 344 340 339 337 336 336 336 337 337 338 336 336 337 337 337 337 337 338 337 337 337 337 337 338 337 336 336 336 335 335 334 334 335 335 335 335 336 337 338 336 336 337 338 339 339 340 340 340 340 340 339 339 339 340 340 340 340 341 341 341 341 341 341 341 341 340 340 339 339 339 339 338 338 337
314 313 312 313 311 312 316 316 317 315 318 322 318 315 315 318 328 330 332 337 341 343 346 345 340 338 337 337 337 337 337 337 337 336 336 337 337 337 337 338 339 338 337 337 336 337 337 336 335 336 336 335 334 334 336 337 337 335 336 338 338 338 337 337 339 340 340 340 341 341 341 341 340 340 340 340 340 340 340 340 341 341 341 341 340 341 341 340 339 338 338 337 337 337 337 336 337
314 312 310 311 310 313 317 317 317 315 318 319 318 315 312 326 343 345 343 342 342 344 345 343 339 339 338 338 338 337 336 335 336 335 336 338 337 337 337 338 339 338 337 337 337 337 337 335 335 336 335 336 335 336 338 338 338 337 337 339 339 339 339 339 340 340 340 341 341 341 341 340 340 341 341 341 340 340 340 340 340 341 340 340 340 340 339 338 339 338 337 337 337 337 337 337 337
313 312 310 311 310 311 315 317 317 316 317 317 319 315 313 334 346 344 344 344 345 345 345 341 339 340 339 337 337 336 336 336 336 336 336 337 336 337 337 338 338 337 336 337 337 337 336 335 336 336 336 337 337 337 339 339 339 339 338 339 340 340 340 340 339 339 340 341 340 340 340 340 339 340 340 341 340 340 340 339 340 341 341 340 340 339 338 338 338 337 337 337 337 337 337 337 337
313 312 312 312 311 311 312 315 316 316 316 316 318 314 325 345 346 343 344 344 345 346 345 341 338 339 338 337 336 337 338 338 337 335 335 336 336 337 337 338 338 337 337 337 338 337 336 336 336 337 337 338 338 338 339 339 340 340 339 340 340 339 339 339 339 339 340 340 340 339 339 339 338 339 339 340 340 340 340 339 340 340 340 340 339 339 338 337 337 336 336 336 336 337 337 337 337
312 312 313 312 312 312 311 313 315 317 315 316 317 313 331 348 344 341 343 341 343 343 342 340 338 338 337 336 336 337 339 339 336 335 336 337 337 337 337 338 337 337 337 337 338 337 337 337 337 338 339 339 339 339 339 340 340 340 340 339 339 339 339 338 339 339 339 338 339 339 339 339 338 338 339 339 339 340 340 339 340 340 339 339 338 337 337 336 336 336 336 336 336 336 336 337 337
313 312 313 311 311 312 313 315 314 316 315 315 318 311 330 349 344 342 342 340 342 341 341 340 339 338 337 337 336 336 339 339 335 334 336 337 337 337 337 337 337 336 336 337 338 338 337 337 338 339 340 340 340 340 339 339 340 340 339 338 338 339 338 338 338 338 338 338 339 339 339 338 337 338 339 339 339 339 339 338 338 337 337 337 337 336 336 335 335 335 336 336 336 336 336 336 336
313 312 312 311 311 311 313 316 314 317 314 313 317 312 330 350 345 342 341 340 343 342 342 341 339 339 337 337 336 337 339 337 334 335 336 336 336 337 337 337 337 336 336 337 338 339 338 338 339 340 340 340 340 339 340 339 339 339 339 338 338 338 337 337 337 337 337 338 338 338 338 337 337 337 337 337 338 338 337 336 336 336 335 335 335 335 335 335 334 335 335 335 335 335 336 336 336
313 312 311 310 311 311 314 316 315 317 314 314 318 311 327 349 346 342 342 341 343 342 343 343 340 339 337 337 338 338 338 336 336 337 336 336 337 337 337 336 336 336 337 337 339 339 339 339 339 341 340 340 340 339 339 339 339 339 338 338 337 338 337 336 337 337 336 336 336 336 336 335 335 335 335 336 336 335 335 334 334 334 334 334 334 334 334 334 333 333 333 334 334 334 334 334 335
313 313 311 310 311 312 313 315 315 316 315 315 315 312 328 347 346 342 343 342 342 341 342 342 340 339 338 338 338 339 339 338 339 338 337 337 337 336 336 336 336 336 337 338 339 339 339 339 339 340 340 339 339 339 339 338 339 339 338 337 337 337 336 336 337 336 335 335 334 334 334 333 333 334 334 334 334 334 333 333 333 333 333 333 333 333 332 332 332 331 332 331 331 331 332 333 333
313 312 311 311 312 312 311 313 315 316 317 315 318 328 341 348 346 345 344 343 344 343 341 340 339 339 339 338 339 339 339 341 341 339 338 338 337 337 336 336 336 336 337 337 338 339 339 339 339 339 339 338 338 338 338 338 338 337 336 336 336 336 336 336 336 336 335 333 333 333 333 332 333 332 332 332 332 332 332 332 332 332 330 330 330 330 329 329 329 329 329 329 328 329 330 331 330
313 312 311 311 311 312 311 313 315 315 317 323 332 343 346 345 344 346 345 345 346 344 342 341 340 339 340 340 340 339 339 340 342 339 338 338 337 338 337 336 336 336 336 337 337 338 338 338 338 338 338 337 338 337 337 337 336 336 335 335 335 335 335 335 336 336 334 332 332 332 332 332 331 330 330 330 330 330 330 330 330 329 328 327 327 327 326 326 326 326 327 327 327 327 328 328 327
312 313 312 312 312 313 313 314 314 312 314 323 336 345 346 344 343 345 344 346 347 344 343 342 341 341 341 341 340 339 339 340 340 339 338 338 338 338 337 336 336 335 336 337 337 337 337 337 338 338 337 337 337 337 336 336 335 335 336 335 335 334 333 334 335 335 333 332 331 330 330 330 329 328 328 327 327 327 327 327 327 327 326 325 325 325 325 324 324 324 325 325 325 325 325 325 325
311 312 313 313 313 312 313 312 312 310 313 318 325 339 346 345 341 342 342 346 347 344 344 343 342 343 342 341 340 340 341 340 339 338 337 337 338 338 337 336 336 336 336 336 337 337 337 337 337 337 337 336 336 336 336 335 335 335 336 336 335 334 333 335 335 334 332 331 330 329 328 328 327 327 326 326 325 325 324 324 324 325 325 324 323 323 323 322 322 323 323 323 323 323 323 323 323
310 313 312 313 313 312 313 312 311 313 315 315 314 331 346 347 338 338 343 346 347 346 345 344 343 343 342 341 341 341 341 340 339 338 337 337 338 338 337 336 335 335 336 336 336 336 336 336 337 337 336 335 336 336 336 335 335 335 335 334 334 333 334 335 334 332 331 330 328 327 326 326 326 325 325 324 323 323 322 322 322 322 322 322 321 321 320 320 320 321 322 321 321 321 321 320 320
311 312 313 314 313 313 314 311 312 315 314 312 312 321 337 345 339 337 345 347 348 348 346 346 345 343 342 341 342 342 341 339 338 338 338 337 337 337 337 336 335 335 336 336 336 336 336 336 336 336 336 336 336 335 335 335 334 334 334 333 333 334 334 334 332 330 329 328 327 326 326 325 324 323 322 322 321 321 320 320 320 320 320 319 319 319 319 319 319 319 319 319 319 319 318 318 318
311 313 313 313 313 314 315 314 313 314 314 312 312 311 322 339 342 338 345 347 347 349 346 346 345 343 342 342 342 342 340 339 339 338 338 337 337 337 336 336 336 336 336 336 336 335 335 335 335 335 335 335 335 334 333 333 333 333 333 333 333 334 334 332 331 329 328 327 327 326 325 324 322 321 320 319 319 319 319 319 318 318 318 318 317 317 317 318 318 317 317 317 316 316 316 316 316
313 313 312 312 314 315 316 317 313 313 318 317 313 308 313 334 344 339 341 345 345 346 345 345 345 342 342 342 342 342 340 339 339 338 338 338 337 337 337 337 336 336 336 335 335 335 335 335 334 335 334 334 333 333 333 332 332 333 333 333 334 334 333 331 329 328 327 326 325 324 323 321 320 319 318 318 318 318 318 318 317 316 315 316 316 316 316 317 316 315 315 314 314 315 315 314 315
313 312 312 311 313 314 312 314 312 315 322 320 313 311 308 325 343 341 338 341 341 343 344 344 344 341 341 341 341 342 341 340 339 338 338 337 337 337 337 337 336 336 335 335 335 335 335 334 333 334 334 333 333 332 332 333 333 334 334 334 334 333 331 329 328 326 326 325 324 323 322 320 319 318 318 317 317 317 316 316 315 315 314 315 315 315 315 315 315 314 314 313 314 314 314 314 314
312 311 312 312 312 313 312 313 314 316 322 318 312 314 308 318 339 341 337 339 339 340 342 342 343 341 340 340 341 342 341 340 339 339 339 337 337 337 337 337 336 336 335 335 335 334 334 333 333 333 333 332 332 332 331 332 333 333 333 333 332 330 328 327 326 325 324 324 324 322 320 318 318 317 317 317 316 316 315 314 314 314 314 314 314 314 314 314 313 313 312 312 313 313 313 314 314
311 309 311 314 313 313 314 315 316 317 317 314 311 314 311 315 332 339 336 337 337 338 339 339 341 340 339 340 341 342 340 340 340 339 338 337 337 337 337 337 336 336 335 334 334 334 334 333 332 331 330 330 330 330 330 330 331 331 331 331 329 327 326 325 324 323 323 322 322 320 319 318 317 316 316 316 316 315 314 314 314 313 313 314 313 314 313 313 312 311 311 311 312 312 312 312 313
312 310 312 315 314 316 316 314 316 317 317 316 313 313 312 314 328 337 335 334 335 336 337 337 339 339 340 341 341 341 341 340 339 338 338 337 337 337 336 336 336 335 335 334 334 333 332 331 329 329 328 328 328 329 329 328 328 328 328 328 327 326 324 323 322 322 322 321 320 319 318 317 316 315 315 315 315 314 314 313 313 313 313 313 313 312 312 312 311 310 310 311 311 311 311 311 312
313 312 311 312 315 320 318 315 318 319 318 319 317 315 317 321 331 335 334 335 335 336 336 337 338 339 340 342 342 341 341 339 338 338 337 337 337 337 336 335 335 334 334 334 332 331 330 328 327 327 326 326 326 326 326 326 326 325 325 325 324 324 323 322 321 320 320 320 319 318 317 316 315 315 314 313 314 314 313 312 312 312 312 312 311 311 310 310 309 309 310 310 310 310 310 310 310
313 312 311 312 315 321 318 316 319 319 320 322 318 314 319 329 337 337 333 336 336 335 336 337 339 341 341 343 342 341 340 339 338 338 337 336 336 336 335 334 334 333 333 332 330 329 328 327 326 325 324 324 324 324 324 324 323 323 322 322 322 322 322 321 320 319 319 318 318 317 316 315 314 314 313 313 312 312 312 311 311 311 311 311 310 310 310 309 309 309 309 309 310 310 309 309 309
313 311 311 313 315 317 320 319 318 318 321 322 315 312 318 329 339 341 336 335 336 335 336 340 341 342 342 343 342 340 339 338 338 337 336 336 336 335 335 333 333 333 332 331 329 328 327 325 324 323 322 322 322 322 322 322 321 321 320 320 320 320 319 319 319 318 317 316 316 315 315 315 314 313 313 312 311 310 309 309 308 309 310 310 310 310 310 309 309 309 309 309 309 308 308 308 307
312 313 312 316 317 314 317 321 319 317 317 319 317 314 317 324 332 335 333 334 338 338 339 342 342 342 343 342 341 340 339 338 338 337 335 335 335 335 334 333 332 332 331 329 328 327 325 324 323 322 321 321 321 320 320 320 320 320 319 319 318 318 318 317 317 317 316 315 315 315 314 314 313 312 311 310 309 308 307 307 307 307 308 309 310 309 309 309 308 308 308 307 307 307 306 306 305
312 313 312 315 319 316 315 318 319 319 318 320 318 314 317 325 327 328 331 335 339 340 341 342 342 342 342 341 340 340 338 338 337 336 335 335 335 334 333 332 331 330 329 328 326 325 324 322 321 321 320 319 319 319 319 319 319 318 318 318 318 318 318 317 316 316 315 315 314 314 313 312 311 310 309 308 307 306 305 305 305 306 307 308 309 309 308 308 308 307 307 306 306 305 305 304 304
310 312 313 312 314 315 317 316 315 318 322 321 318 318 323 328 327 326 329 333 337 340 341 342 341 341 341 340 340 339 338 338 337 335 335 334 334 333 332 331 330 329 328 326 324 323 322 322 320 320 319 318 318 318 318 318 318 317 317 317 316 317 316 316 315 315 315 314 313 312 312 311 310 309 308 306 305 304 304 304 303 304 306 308 308 308 308 307 307 306 306 305 305 305 304 304 303
311 312 314 314 314 314 315 317 312 313 320 321 320 323 327 330 330 329 330 333 337 339 339 341 341 340 340 340 339 338 337 337 336 335 335 334 333 332 330 329 328 327 326 324 323 322 321 321 320 319 318 318 318 318 318 317 317 316 316 316 315 315 315 315 315 314 313 313 312 311 310 309 308 307 306 305 304 304 303 302 301 302 305 307 307 307 307 306 306 305 305 304 304 304 303 303 302
Wind_Speed
16 18 17 17 18 17 14 3 1 3 1 3 4 4 6 8 8 11 10 2 4 3 4 7 8 10 13 12 14 13 7 3 4 4 2 6 23 32 29 31 33 31 30 27 25 23 22 21 20 21 20 21 20 21 21 20 21 20 18 16 15 16 17 18 16 16 16 16 16 16 16 16 16 16 16 16 15 15 14 14 13 13 13 14 14 14 14 14 13 12 11 10 11 11 11 11 11
15 16 15 16 16 7 3 1 1 4 2 4 4 4 8 9 9 12 7 1 0 2 5 6 11 17 18 15 14 14 9 5 7 7 6 20 28 28 32 34 35 34 30 28 26 24 23 22 21 21 21 21 21 21 21 20 21 20 19 17 16 17 18 18 16 16 16 16 16 16 16 16 16 16 16 15 15 15 13 13 13 13 13 13 13 13 13 12 12 11 10 9 10 10 10 11 11
14 14 14 15 9 1 1 2 1 3 3 5 5 5 8 10 12 12 6 4 2 4 5 5 9 11 13 11 9 10 6 5 13 12 10 22 21 21 33 35 35 33 30 28 26 25 24 23 22 22 21 21 21 21 21 21 21 20 19 17 18 19 18 17 17 16 16 16 16 16 16 16 15 16 16 15 15 14 13 12 12 12 12 12 12 11 11 11 11 10 9 9 9 8 9 11 12
12 10 12 10 5 1 1 0 3 4 4 5 5 6 8 12 15 11 5 3 4 4 5 6 6 4 11 14 8 9 8 6 13 15 9 16 21 26 34 34 34 32 30 28 26 25 24 23 23 22 21 21 21 22 21 21 21 20 19 19 20 19 18 17 17 17 16 16 16 16 16 15 15 15 15 15 15 14 12 12 11 11 11 11 10 10 10 10 10 9 9 9 9 9 10 11 12
9 9 10 4 1 2 0 1 2 3 4 4 4 6 9 13 16 10 5 1 4 6 5 3 4 4 10 10 4 5 8 8 11 16 15 20 30 33 33 34 34 31 30 28 26 26 24 23 22 22 21 21 22 22 21 21 21 21 20 21 20 18 18 17 17 17 16 16 16 16 15 15 15 14 14 13 13 13 12 11 10 10 10 9 8 9 9 9 9 9 9 9 9 10 10 11 13
8 9 10 4 2 2 1 2 2 5 5 4 5 7 10 14 15 11 9 5 2 4 5 3 6 8 7 4 4 3 7 11 10 16 23 29 35 34 34 34 32 30 29 27 25 25 25 23 23 22 21 21 22 21 21 20 21 21 22 22 20 18 18 17 17 16 16 16 16 15 15 14 14 13 12 12 11 11 10 9 9 8 8 7 7 8 8 9 10 10 9 9 10 10 11 11 13
7 7 4 2 2 2 2 4 5 5 6 7 8 9 13 17 18 15 16 10 4 1 4 7 12 11 5 3 4 3 5 12 11 21 32 36 36 34 34 32 31 29 27 27 26 25 25 24 24 23 22 22 22 22 21 21 22 22 22 21 19 18 18 17 17 16 16 16 16 15 14 13 12 11 10 9 8 8 8 8 7 6 7 6 6 7 9 10 10 9 9 10 10 11 11 11 13
7 3 1 1 1 2 3 5 5 5 7 9 10 12 16 18 19 17 16 11 6 5 1 7 14 11 3 5 3 3 7 17 20 32 39 38 37 35 33 33 33 30 26 27 26 25 24 24 24 23 23 23 23 24 23 23 23 22 21 20 19 18 18 17 17 16 16 16 15 14 13 12 10 9 7 6 6 6 6 6 5 5 5 5 5 7 9 10 9 9 9 10 10 11 11 12 14
7 3 1 0 2 3 4 4 5 6 7 9 10 13 16 16 18 19 17 16 11 7 5 3 12 11 6 9 6 2 10 25 32 37 38 37 36 34 33 33 35 31 27 27 26 25 25 25 24 24 24 24 25 25 25 24 22 21 20 19 18 18 18 17 17 16 16 15 14 13 12 10 9 7 6 5 5 5 5 4 4 4 4 4 6 8 9 9 9 9 9 10 10 11 12 12 13
4 4 1 2 3 4 5 5 5 6 8 10 11 12 15 15 16 18 18 17 9 4 2 8 13 11 10 9 5 1 12 29 35 35 35 37 35 33 32 33 33 31 29 28 27 27 25 23 22 24 25 25 26 26 25 23 21 20 19 19 18 18 18 17 17 16 15 14 13 12 10 9 8 7 6 5 5 4 4 4 3 4 4 5 7 9 9 9 9 9 9 9 10 10 11 12 13
1 3 2 3 4 5 5 6 7 7 10 10 11 13 13 14 16 15 15 15 3 4 1 8 11 10 11 6 2 6 16 26 31 32 35 35 32 32 34 34 30 30 32 30 29 28 26 22 21 23 26 26 26 25 23 21 21 20 19 19 18 18 18 17 17 15 14 13 12 10 9 8 7 7 6 5 5 4 4 4 4 4 5 7 9 10 10 9 8 9 9 9 9 10 11 11 12
2 3 3 4 5 5 6 6 7 8 10 10 12 12 11 14 17 14 15 17 4 8 4 3 9 10 10 5 3 9 15 20 28 33 34 31 29 34 36 34 30 31 32 30 31 29 26 23 21 22 25 26 25 24 22 21 21 20 20 19 18 18 18 17 16 15 14 12 11 9 8 7 7 6 6 6 5 5 4 4 5 5 6 8 10 11 11 9 8 8 8 8 8 8 9 10 10
3 4 4 5 5 5 6 6 7 8 9 8 10 11 12 16 17 14 14 12 6 7 3 7 12 11 7 5 5 7 11 19 28 32 32 30 31 35 36 34 32 33 33 32 32 30 27 25 23 23 24 24 24 24 22 21 21 20 20 19 18 18 17 17 15 14 13 11 9 8 8 7 7 7 6 6 6 6 5 5 5 6 6 8 10 12 11 10 8 8 7 7 6 6 7 8 8
5 4 4 4 4 6 6 6 6 8 7 7 9 12 14 11 8 4 1 6 7 6 8 15 15 13 8 6 5 5 11 22 30 32 30 31 34 35 35 35 34 34 33 32 33 31 29 26 24 24 24 24 24 24 23 21 20 20 19 19 18 17 17 16 15 14 12 10 9 8 8 8 8 7 6 6 6 6 6 5 5 6 7 8 10 12 11 10 8 7 7 6 5 5 5 6 7
7 2 3 4 4 5 6 7 8 8 7 8 11 10 8 5 3 5 5 5 4 2 6 13 11 9 10 11 7 8 16 26 31 31 30 32 34 34 35 35 34 33 32 32 32 31 29 26 25 24 25 25 24 24 23 21 20 20 19 18 17 17 17 16 14 13 11 10 9 9 8 8 9 8 7 6 6 6 7 6 5 6 7 8 10 11 11 9 7 6 6 5 4 3 3 4 5
6 3 4 4 5 6 5 7 9 9 7 10 12 6 2 1 2 3 3 2 3 1 4 5 5 6 14 15 13 18 25 31 31 30 31 34 34 33 34 33 33 32 31 31 31 30 29 27 26 25 25 25 24 24 23 22 20 19 19 18 17 16 16 15 13 12 11 10 9 8 8 8 9 8 7 6 6 6 7 8 6 5 6 8 9 11 10 8 6 5 4 4 3 2 2 1 2
4 4 5 5 7 7 6 6 6 6 8 12 13 8 5 3 3 3 4 4 3 0 3 2 1 7 15 14 22 32 32 34 32 29 30 33 32 29 29 29 30 29 28 29 29 30 29 28 27 26 25 24 24 24 23 22 20 19 18 18 17 16 15 14 13 12 11 10 8 7 7 8 8 8 7 6 7 7 6 7 6 6 5 7 8 10 9 7 5 4 3 2 1 1 0 1 2
5 4 6 7 7 7 7 8 7 6 8 10 7 5 5 3 2 3 3 5 3 2 5 8 10 9 14 19 31 37 35 35 32 28 27 27 27 24 24 26 27 27 28 27 28 31 30 29 28 26 26 24 24 24 23 22 21 19 19 18 17 16 15 14 13 12 11 9 7 6 6 7 7 6 6 5 6 6 5 5 6 6 5 5 5 7 8 7 5 4 2 2 2 2 3 3 5
6 4 6 8 7 7 8 9 11 9 11 11 3 3 2 3 3 0 2 3 4 2 6 12 14 12 16 22 29 32 34 34 30 26 25 24 23 22 22 24 26 27 28 28 30 31 30 30 28 27 27 25 24 24 23 22 21 20 19 18 17 16 15 14 13 12 10 8 7 6 6 6 7 5 5 3 4 5 5 5 5 6 6 5 4 4 5 5 4 2 3 4 4 5 6 6 6
7 5 6 8 8 8 10 12 14 11 14 12 1 5 5 6 6 3 2 3 3 5 8 11 13 13 16 18 21 26 29 28 27 25 24 25 23 23 24 24 25 27 28 29 32 31 30 30 28 27 27 25 24 23 23 23 20 19 18 18 17 16 15 13 12 11 9 8 8 6 4 4 5 4 3 0 1 3 4 5 5 5 5 6 5 3 3 3 1 2 3 3 4 6 7 8 7
5 7 8 7 8 10 13 13 14 13 15 12 3 4 2 3 4 4 5 4 2 3 11 15 17 17 17 17 18 21 22 21 22 20 21 22 22 23 23 23 25 26 27 29 32 32 31 30 28 27 26 25 24 23 24 23 20 18 17 17 16 15 14 12 11 10 8 8 7 5 3 4 5 3 2 3 3 1 1 3 4 4 4 4 5 4 3 3 3 4 4 3 3 4 5 6 5
5 9 10 8 8 10 13 14 17 16 15 13 3 5 4 2 2 4 4 3 4 3 10 18 20 21 21 20 19 18 18 17 16 17 19 19 21 24 23 23 25 24 26 29 30 31 30 29 29 28 26 24 23 23 24 23 20 18 17 16 15 15 13 12 11 8 7 6 5 4 3 6 6 3 3 2 3 2 3 2 2 2 2 2 4 3 2 3 3 4 7 7 6 6 6 6 5
7 8 10 12 12 10 11 13 17 15 12 12 7 1 3 4 1 4 5 4 4 4 9 19 18 20 22 21 19 18 18 16 13 12 11 10 10 10 13 17 21 23 27 29 29 29 29 30 30 29 26 23 21 23 25 24 22 19 17 15 14 15 13 12 11 9 9 8 7 6 5 8 8 4 4 4 5 6 6 6 4 4 3 2 2 3 4 5 4 5 8 8 7 8 9 10 10
11 8 9 12 14 14 14 14 14 12 11 8 2 4 5 3 1 4 3 1 3 4 10 18 15 15 16 16 17 17 16 12 12 14 13 12 15 16 10 3 6 15 24 27 28 29 29 32 32 28 25 22 22 24 23 23 22 20 17 14 14 15 14 13 12 10 11 10 8 7 5 8 6 4 5 6 6 6 4 4 3 4 4 4 3 4 6 5 4 6 7 8 8 8 9 11 12
13 11 10 10 11 13 15 18 15 13 11 6 2 5 4 3 4 6 5 4 3 6 14 16 14 14 12 9 8 8 10 13 12 14 15 11 10 10 8 4 4 4 15 24 27 28 29 32 31 28 25 22 23 24 22 22 22 21 17 14 13 13 14 13 12 12 11 11 7 5 6 6 4 5 6 6 7 6 5 5 4 2 3 3 3 4 6 6 7 8 9 9 9 9 10 11 13
12 13 11 10 11 12 14 17 16 14 10 5 1 1 3 5 6 6 3 3 6 14 16 14 13 12 11 12 12 9 7 9 10 13 14 12 14 15 11 8 3 7 8 16 19 22 24 28 28 27 25 23 23 23 23 22 21 21 19 15 12 12 14 12 12 13 10 10 9 5 6 6 5 5 6 6 6 6 6 6 5 3 2 2 3 5 7 8 9 9 9 9 10 11 12 12 13
9 13 14 13 12 11 12 14 13 12 8 6 5 3 3 4 5 3 2 2 8 16 15 14 14 12 13 13 11 9 6 6 12 15 16 18 16 12 6 5 7 4 5 9 12 17 19 21 24 25 24 22 21 22 24 22 20 20 19 15 13 11 13 11 12 11 6 6 8 6 6 7 6 5 6 6 5 5 6 6 5 4 3 4 5 7 9 8 7 8 8 9 11 12 13 13 14
10 13 14 15 13 12 13 14 12 9 6 9 9 5 4 4 5 5 3 3 11 16 15 16 16 11 10 10 9 9 7 9 18 21 16 17 18 15 12 13 12 7 8 10 14 18 18 17 19 21 22 20 20 22 24 23 20 17 15 15 12 9 11 12 10 8 5 6 7 7 7 7 6 6 4 3 3 3 4 4 4 3 3 4 5 7 8 7 7 8 8 9 12 12 13 13 14
12 12 11 15 15 14 14 14 12 8 5 6 7 3 4 4 5 6 4 10 16 15 13 14 15 13 10 9 8 8 10 11 14 15 15 18 19 16 14 15 14 12 14 15 17 18 17 14 16 19 19 19 19 20 19 20 18 15 15 15 11 10 11 12 9 8 7 7 7 7 8 6 5 5 3 1 2 3 2 1 2 2 3 5 5 7 7 7 7 8 8 9 10 11 12 13 13
11 11 7 8 11 12 14 13 12 10 4 4 6 1 5 6 8 8 4 16 18 13 10 10 10 11 10 9 8 7 8 10 12 13 17 21 24 24 22 19 17 18 19 19 18 18 17 15 17 18 17 18 18 16 16 17 16 15 16 14 11 11 12 11 10 9 8 7 7 6 6 4 2 2 0 1 3 5 4 2 3 3 3 5 5 6 7 7 7 8 8 9 9 10 12 13 13
9 9 7 5 5 6 10 12 13 11 6 6 6 3 5 3 5 5 7 17 18 13 11 10 9 10 10 9 9 9 7 8 13 18 20 24 27 28 26 23 22 24 24 24 23 20 18 18 18 17 17 19 18 16 16 17 16 16 16 13 12 12 12 12 11 9 8 7 5 4 3 2 0 1 1 1 2 2 3 3 3 2 2 4 4 5 6 6 6 8 9 9 10 11 12 13 12
6 7 6 5 4 3 5 10 12 11 6 8 7 4 5 2 2 1 11 17 17 14 11 10 11 11 11 9 9 9 8 9 15 20 23 25 28 29 29 29 26 26 28 28 26 20 19 21 18 17 19 19 18 17 16 18 18 17 15 13 13 12 10 10 10 9 7 6 4 3 2 1 1 1 1 2 3 3 3 4 3 2 2 3 4 5 6 6 7 8 8 9 10 11 12 13 12
5 6 5 5 6 4 4 7 11 13 8 8 10 5 3 4 1 2 10 15 15 12 9 10 12 11 10 8 8 8 7 8 10 16 23 25 27 29 31 31 29 28 28 28 25 21 22 23 20 19 20 18 18 17 16 18 18 16 16 15 12 10 9 9 10 9 7 6 5 4 3 2 2 2 1 3 4 4 4 3 1 2 2 3 5 6 6 6 8 8 8 8 9 11 12 13 13
4 4 4 5 6 6 5 5 8 14 12 9 11 8 3 6 5 4 7 12 14 12 10 10 11 11 9 8 8 8 7 8 7 13 21 22 23 27 29 31 31 30 29 28 28 26 26 25 22 21 20 19 19 18 17 17 16 15 15 14 12 10 9 10 10 9 8 7 5 5 5 3 2 2 1 1 3 4 4 3 2 2 3 4 6 6 6 7 9 8 9 10 9 10 11 12 13
5 5 4 4 5 6 8 7 5 12 16 12 10 9 6 9 7 6 6 9 13 12 9 10 11 11 10 9 9 8 8 8 7 14 22 24 25 27 29 30 30 29 28 28 28 28 26 24 23 22 20 20 20 19 18 17 15 14 12 11 11 10 10 11 10 9 8 7 6 5 5 5 4 2 2 1 3 5 4 4 4 6 6 6 7 8 8 9 9 9 11 12 11 9 9 11 11
7 7 6 5 6 6 8 9 9 11 15 12 10 9 10 11 10 9 6 7 11 10 8 8 9 10 10 9 9 9 9 8 8 15 21 24 27 28 29 29 28 26 25 27 28 28 28 26 25 22 20 20 20 20 18 17 17 14 13 12 11 10 10 11 10 10 10 8 7 7 7 9 7 4 5 5 6 7 7 7 7 8 8 8 8 9 10 10 10 11 12 13 14 12 11 11 11
9 9 8 9 8 7 8 11 13 12 12 13 13 10 10 13 12 12 9 8 10 9 9 8 8 9 8 9 10 10 10 8 10 13 16 21 25 27 28 28 26 24 23 26 28 28 29 29 27 23 22 21 22 21 18 18 18 17 16 15 13 11 10 11 11 11 12 10 9 11 13 15 13 9 9 8 8 8 9 9 9 9 8 8 9 9 11 12 12 12 12 13 14 14 14 13 14
11 8 8 9 9 9 10 11 13 12 9 10 15 11 9 13 12 12 13 11 11 10 10 9 9 9 7 9 10 10 9 8 10 12 14 18 21 23 26 27 25 24 24 26 27 27 28 29 27 24 23 23 23 22 20 18 17 18 18 16 16 14 12 13 14 13 13 13 13 15 17 17 15 12 11 9 9 9 9 9 10 9 8 8 9 9 10 12 13 14 14 15 14 14 14 14 18
11 7 6 6 9 9 10 14 14 10 8 9 15 11 7 12 10 10 11 10 10 10 11 11 11 11 9 10 11 11 10 8 10 11 14 18 21 23 25 26 25 25 25 24 24 25 27 27 26 25 24 23 23 22 21 20 17 15 16 16 16 15 15 15 17 17 16 16 17 17 17 16 13 12 11 9 9 9 8 9 9 9 9 9 9 9 10 11 13 14 15 17 17 16 14 15 20
10 7 5 4 7 8 8 13 13 9 9 9 13 6 6 9 7 6 6 7 9 7 8 9 9 11 11 10 10 11 11 11 11 9 10 16 21 22 24 24 25 25 23 23 23 24 26 26 26 26 25 23 22 21 21 20 18 15 16 16 15 16 17 17 19 18 18 18 16 14 13 12 11 11 11 9 9 8 8 8 8 9 10 10 10 11 12 13 14 15 15 17 18 18 16 15 18
10 9 7 6 8 9 8 9 8 7 8 10 13 6 3 7 9 8 5 6 9 9 9 8 7 8 9 9 9 10 10 10 11 10 8 11 15 19 22 24 24 24 22 22 22 22 24 24 24 26 26 22 20 21 21 21 20 19 18 17 17 18 19 19 19 18 17 17 14 12 11 10 9 10 10 9 8 8 8 7 7 8 9 10 11 11 13 13 14 15 15 16 17 18 16 15 17
8 10 10 10 12 11 10 10 6 5 5 8 15 6 1 2 4 6 7 8 8 9 10 10 9 9 9 10 11 12 11 9 9 10 9 8 10 15 20 23 23 23 22 22 22 22 22 23 23 24 23 20 19 21 23 23 23 22 21 21 20 20 19 17 18 19 18 16 14 12 11 9 9 9 9 8 8 8 8 7 7 7 8 10 10 11 12 13 13 14 15 16 16 16 16 17 19
6 9 10 14 16 13 10 13 9 5 5 8 12 8 2 1 4 5 4 9 10 9 10 10 10 10 9 9 11 12 12 10 10 10 10 9 10 13 16 19 22 23 23 24 23 21 21 22 22 22 21 20 21 22 23 24 25 24 24 23 22 21 19 17 17 18 18 16 14 12 11 9 8 8 8 7 8 8 8 7 6 6 7 9 10 11 13 14 14 14 14 15 15 15 17 18 20
6 9 10 12 16 15 13 11 8 5 5 7 9 9 5 3 5 9 6 8 9 9 10 10 10 11 11 10 12 13 12 11 11 11 10 10 10 11 14 17 20 23 24 25 24 21 20 23 22 19 19 21 22 22 22 24 25 25 24 23 22 22 22 21 20 19 17 16 16 14 13 11 8 6 5 5 6 7 8 8 8 6 7 9 10 11 13 13 14 14 13 14 14 16 18 19 20
8 9 11 11 12 14 13 8 5 4 6 6 7 8 6 4 7 9 7 8 8 10 12 12 12 13 13 13 13 13 13 13 13 12 11 11 11 13 15 17 20 22 24 25 23 21 21 22 21 18 18 21 21 22 23 23 23 23 24 25 25 24 23 23 22 20 19 18 18 15 13 12 9 6 5 5 6 7 8 10 10 8 8 9 10 11 12 13 15 16 15 15 15 15 17 18 20
8 10 11 11 11 11 9 5 4 2 6 7 9 8 5 2 6 7 7 7 9 10 11 12 13 14 14 14 14 14 13 13 13 13 12 14 17 18 18 19 20 21 22 22 22 21 21 20 20 19 19 20 19 19 20 20 21 22 24 26 26 25 24 24 23 22 21 19 18 15 12 10 9 8 7 7 8 9 9 9 10 9 9 9 11 13 13 15 17 16 15 16 16 17 18 19 20
9 10 10 10 9 5 4 4 1 1 3 6 9 11 8 4 5 8 8 12 14 12 11 12 13 14 14 13 13 14 14 13 13 13 13 16 21 21 20 20 21 20 20 21 22 22 21 19 20 21 20 19 18 17 18 19 20 21 23 25 26 25 25 25 24 22 20 17 16 13 11 11 11 11 10 9 10 10 9 8 9 10 12 13 14 15 15 16 17 16 16 17 18 19 19 19 20
10 9 7 6 4 2 3 4 1 2 3 6 7 11 9 5 5 9 12 14 16 15 15 17 17 15 14 12 12 13 13 13 13 13 13 15 17 18 20 20 20 22 21 22 23 22 21 20 22 22 20 18 18 17 19 21 22 23 23 24 24 24 24 23 23 21 19 17 15 14 13 14 13 12 12 11 10 9 9 9 11 13 15 16 15 15 16 16 16 16 16 17 19 19 18 18 19
10 8 5 5 2 2 4 4 2 3 3 7 10 11 7 5 9 16 17 12 14 15 16 19 19 17 15 13 12 11 11 12 12 12 12 12 13 15 18 19 21 22 22 23 24 23 22 23 23 22 19 18 20 21 22 23 24 24 24 24 24 23 22 22 21 20 18 17 16 16 16 14 12 11 12 12 11 10 11 13 14 14 15 15 15 16 16 16 16 16 17 18 19 19 18 17 17
11 8 5 5 5 4 6 3 2 2 4 7 8 9 5 2 6 19 21 16 17 17 16 19 19 18 17 14 13 12 11 12 11 12 12 11 12 16 18 19 20 21 23 25 25 24 24 24 24 23 22 21 23 23 22 22 22 23 23 23 23 23 23 22 20 19 18 17 16 16 15 13 12 11 10 9 10 11 12 14 15 15 15 16 15 16 16 16 17 17 18 19 20 20 18 17 17
9 8 4 4 4 5 4 2 3 3 3 4 0 4 4 3 6 18 20 16 17 15 14 18 17 16 16 13 13 13 12 12 11 12 12 12 15 18 18 19 20 22 25 26 24 25 26 25 25 26 24 23 22 22 21 21 21 21 21 22 22 22 22 22 21 19 17 16 13 12 10 10 11 11 9 9 11 12 13 14 15 15 15 16 16 15 15 15 17 18 19 19 20 19 18 19 19
7 7 4 5 4 4 4 3 4 4 1 2 1 1 2 2 5 15 16 13 14 14 14 17 16 15 15 13 13 13 12 12 12 12 12 13 17 20 19 19 21 24 25 24 24 27 28 27 26 26 24 23 22 22 22 22 21 21 20 20 21 21 21 21 21 18 16 14 11 10 10 10 11 11 11 12 13 12 13 14 14 14 14 16 16 16 17 18 18 20 20 19 19 18 18 19 20
6 5 5 5 4 4 5 2 2 4 2 3 3 1 2 3 2 6 15 16 15 15 16 18 17 16 16 14 13 13 12 13 13 12 13 14 17 20 20 21 23 24 24 23 25 28 28 27 27 26 24 23 22 23 23 23 22 21 20 19 19 19 19 19 19 18 16 13 12 12 12 12 12 12 12 13 13 13 13 14 14 14 14 16 17 17 18 19 19 20 20 19 18 18 19 21 22
6 5 4 4 4 2 5 3 1 3 2 3 4 3 0 2 2 3 8 16 16 15 17 18 17 16 15 13 13 13 14 14 13 13 13 14 17 20 21 22 24 24 24 24 26 27 27 27 27 26 24 23 22 22 22 22 22 21 21 20 18 17 16 17 17 17 16 14 14 14 14 14 13 13 13 13 13 13 14 14 15 15 14 16 17 17 17 18 18 19 20 20 20 20 22 24 24
5 6 6 4 4 3 1 3 3 4 3 3 5 6 3 5 6 4 7 14 16 16 17 19 18 16 13 12 13 14 15 14 13 13 12 12 16 20 23 23 25 25 25 26 26 26 26 26 25 25 24 23 22 21 20 20 20 20 21 20 18 17 17 18 19 19 18 17 17 16 16 15 15 14 14 15 15 15 15 15 15 15 15 15 16 17 18 18 18 19 20 21 21 20 23 24 24
6 6 6 4 4 3 2 3 4 4 5 2 4 5 4 3 9 13 14 15 18 18 17 18 19 16 13 13 13 13 14 13 12 13 12 12 16 22 25 25 26 27 26 26 26 26 26 25 24 24 23 22 22 21 20 20 20 21 21 20 19 19 21 21 21 20 19 18 17 17 17 17 16 16 15 15 16 16 15 15 15 15 15 16 18 19 19 19 19 20 21 22 22 21 22 24 23
6 4 5 5 3 3 2 1 2 4 4 4 3 3 5 5 7 13 17 19 21 21 19 18 17 15 14 15 15 14 13 13 12 13 13 14 17 23 26 26 27 28 26 26 27 27 26 25 24 23 22 22 22 21 21 21 21 21 21 21 21 22 23 23 22 20 20 19 18 18 18 17 17 18 17 17 17 16 15 13 13 14 16 18 19 20 20 20 20 21 22 23 22 22 23 23 23
8 4 3 6 5 4 3 2 3 3 3 4 5 4 6 4 4 9 16 19 19 21 22 18 16 17 17 16 15 15 14 13 13 13 13 14 17 22 25 26 27 27 25 26 27 27 26 25 24 23 21 21 20 20 21 21 21 22 21 21 22 22 22 21 21 21 21 20 19 19 18 18 19 18 18 18 18 16 14 13 13 15 18 19 19 19 20 21 20 21 22 23 22 23 24 24 24
Wind_Direction
314 316 322 327 325 328 319 326 31 296 233 262 262 272 270 266 274 282 285 341 47 17 25 50 61 81 93 103 106 89 70 98 154 154 174 126 124 137 147 146 146 145 143 143 143 142 141 139 137 137 136 136 138 141 140 140 139 139 136 136 134 134 135 132 128 124 120 117 114 113 111 110 108 108 106 106 104 101 99 98 101 100 98 98 96 95 94 92 88 83 77 71 66 62 62 61 60
316 318 324 330 324 328 319 36 31 291 326 287 270 263 272 289 285 283 286 143 261 63 63 61 82 94 103 110 105 83 59 67 116 108 100 117 118 130 143 147 149 146 143 143 143 142 142 142 139 139 139 138 139 140 142 143 142 140 138 138 137 136 136 133 130 127 123 119 117 116 114 113 112 112 110 110 106 103 101 101 101 99 99 98 96 94 92 90 87 84 78 69 65 60 56 58 68
317 321 328 338 332 222 243 10 157 265 292 270 273 277 280 289 279 290 317 107 85 41 52 44 77 100 103 93 83 85 94 104 111 104 115 125 119 132 143 147 149 145 143 143 144 144 145 144 142 141 142 141 140 141 142 144 143 141 140 140 139 137 136 134 132 129 124 121 120 118 116 115 114 114 113 110 106 104 101 100 98 97 96 95 94 91 89 86 84 83 80 72 67 64 57 58 80
315 323 323 340 349 296 12 134 193 242 246 251 268 269 272 277 275 282 287 132 106 59 47 43 49 49 90 100 93 96 122 134 127 123 127 134 131 141 145 146 145 142 142 143 146 146 146 146 146 144 144 142 141 142 144 144 143 140 140 141 140 139 136 134 133 128 124 123 121 120 119 117 116 117 116 113 110 108 105 105 105 105 103 102 103 101 98 94 90 86 80 74 70 69 62 64 93
304 314 305 306 341 315 76 228 217 239 227 241 258 262 267 266 272 277 266 192 92 91 91 94 82 46 78 104 107 109 133 131 138 128 116 129 136 142 145 143 141 139 141 144 147 148 148 148 148 147 144 144 143 144 146 144 141 140 142 143 141 139 136 134 132 128 126 124 122 121 120 119 118 119 119 118 120 121 120 121 120 119 120 119 114 108 108 106 98 88 80 76 76 73 64 73 106
296 314 295 243 248 301 219 253 248 256 241 244 268 275 277 276 282 293 292 309 19 127 124 117 110 96 77 61 48 93 147 133 140 130 121 133 139 142 142 140 137 137 142 145 148 149 149 151 150 148 145 146 147 148 147 144 141 142 144 144 142 140 137 134 132 129 128 126 124 122 122 122 121 121 121 123 126 129 129 128 124 120 123 120 108 104 106 106 97 88 83 81 78 71 65 81 115
297 320 295 196 280 286 189 234 228 250 249 245 265 276 280 286 290 295 291 298 331 309 102 112 111 100 101 98 57 30 141 132 131 132 131 137 140 140 140 138 136 138 144 146 149 150 150 153 151 149 147 147 149 149 147 144 143 145 147 144 142 140 137 135 133 131 130 128 125 123 123 122 121 122 121 125 125 128 133 134 130 123 122 118 115 114 110 107 99 91 87 83 77 69 70 91 121
277 283 290 104 283 240 189 231 228 230 247 244 248 262 270 280 284 289 289 290 307 301 296 131 116 103 115 109 84 335 120 126 125 130 133 136 139 138 139 139 137 140 146 147 149 150 149 152 152 150 149 148 149 148 146 145 145 146 146 143 141 140 138 137 135 134 132 130 128 124 122 121 121 120 122 129 134 139 149 156 152 145 138 126 122 124 114 107 101 94 90 85 76 70 76 100 126
254 221 290 226 222 255 232 233 237 229 244 249 244 250 254 262 271 278 283 285 285 265 250 120 108 114 116 94 97 337 105 123 128 130 133 136 138 138 140 141 138 140 146 148 150 148 148 151 151 150 149 147 146 146 145 145 145 144 144 143 142 141 141 140 137 136 134 132 129 124 121 117 113 112 115 123 136 147 157 169 163 157 156 137 127 129 124 113 104 97 91 85 77 73 80 105 128
234 197 205 227 211 253 253 245 251 244 245 252 252 251 251 252 255 261 268 273 273 255 286 66 90 113 112 98 99 68 113 126 129 131 134 136 138 140 141 140 140 144 147 149 149 146 147 149 149 149 148 146 144 144 144 144 144 144 145 145 144 143 143 142 139 138 136 133 128 122 116 110 104 101 102 106 116 129 141 150 152 151 151 144 138 137 134 120 109 99 93 87 79 76 85 109 128
205 206 184 223 222 232 241 244 248 251 252 254 256 254 256 256 252 250 253 258 228 110 310 74 95 107 105 103 83 125 127 127 130 133 137 139 140 141 139 139 145 149 148 147 146 144 145 147 148 148 146 144 142 142 143 144 145 146 146 146 144 145 146 145 142 139 137 132 126 118 110 103 98 94 91 94 101 109 118 124 136 144 147 148 145 144 139 126 113 102 95 91 82 77 86 111 131
203 215 173 215 217 219 229 236 245 251 251 250 254 255 255 258 260 253 246 249 176 122 234 136 132 118 105 117 116 138 134 128 131 135 139 140 140 139 140 142 147 149 148 147 144 144 145 148 147 147 146 144 143 143 144 146 147 148 148 148 147 148 149 146 143 140 137 131 124 115 106 98 91 91 89 92 97 103 106 107 122 134 146 151 151 150 144 133 121 108 100 97 90 83 86 104 131
205 210 177 216 212 217 235 241 251 257 255 245 250 255 250 253 257 258 250 233 153 138 175 127 135 118 108 133 133 148 144 138 137 140 140 137 135 136 139 141 144 146 147 146 144 145 146 148 148 150 149 147 147 146 147 149 150 152 151 150 150 150 150 146 143 140 136 129 120 110 101 94 90 90 88 91 93 96 96 101 115 125 141 150 155 154 148 141 130 117 106 101 99 95 91 97 118
207 215 192 225 220 216 232 241 247 251 257 246 251 256 253 254 247 262 199 154 131 159 135 122 127 104 109 132 135 171 159 151 144 143 139 133 135 135 138 140 143 144 144 146 144 145 146 148 151 152 152 150 150 150 150 151 152 154 154 152 151 152 150 146 143 140 135 125 117 111 105 100 99 95 90 88 85 87 85 90 108 121 133 145 155 157 154 149 139 126 113 106 105 107 105 97 106
208 217 221 239 240 227 221 225 235 242 252 244 244 242 240 246 197 73 87 133 112 174 108 121 132 108 148 159 167 184 164 155 146 145 138 132 135 134 137 139 142 143 144 145 144 145 146 150 154 155 155 153 154 155 153 153 154 155 155 154 152 153 150 147 145 140 133 127 120 114 111 108 105 100 97 90 77 79 82 79 92 113 127 140 153 159 160 155 147 135 118 112 105 113 126 115 115
201 203 234 240 241 241 225 220 228 236 246 243 242 223 178 233 176 98 145 158 50 336 51 133 167 129 164 169 163 162 157 153 149 148 136 129 132 133 137 138 140 143 145 145 143 145 147 152 156 157 157 155 156 156 155 156 157 155 154 155 155 154 151 148 145 140 136 132 126 115 111 111 104 98 95 85 68 63 73 71 73 95 119 136 150 160 164 163 154 143 126 119 106 103 123 138 145
192 200 231 237 234 235 230 227 228 229 240 245 248 231 200 222 197 154 146 105 69 356 49 115 41 118 158 162 150 150 151 152 154 151 134 129 132 133 138 139 141 144 146 146 145 146 149 154 155 157 159 158 158 157 156 155 157 157 155 155 156 155 151 148 145 143 143 139 133 119 116 115 101 92 87 76 61 55 60 60 65 77 103 130 149 159 166 168 161 163 158 146 125 76 342 289 271
200 193 219 233 228 228 227 236 247 248 258 257 257 243 206 218 226 175 117 90 97 9 38 67 54 86 134 137 142 147 150 153 159 155 139 137 139 140 144 145 146 148 149 149 150 151 152 153 155 159 160 161 162 160 158 155 156 158 156 155 156 155 150 149 149 151 151 145 135 123 132 126 110 93 70 65 60 51 47 51 59 63 81 108 141 161 167 175 178 191 204 242 267 287 292 307 300
215 190 211 228 224 233 237 245 256 258 273 273 292 11 3 351 339 176 127 120 137 76 55 79 78 88 112 128 141 148 152 155 164 160 146 146 147 147 148 151 152 153 155 153 155 157 153 154 158 161 160 162 164 162 160 157 156 156 156 157 156 155 154 154 155 157 154 145 134 130 143 135 125 99 45 58 55 37 42 49 53 56 71 80 97 157 175 185 198 226 257 284 290 295 293 300 301
221 203 215 227 220 241 250 248 257 259 270 274 26 41 1 349 337 344 28 78 128 128 109 101 106 119 125 135 146 150 154 159 166 163 152 151 151 150 151 155 156 158 160 156 158 160 155 157 161 159 159 161 163 163 163 159 157 155 156 158 156 156 158 157 157 157 148 135 131 130 141 152 146 117 60 124 337 16 48 52 54 60 65 65 65 93 136 134 82 353 316 311 318 316 309 301 294
216 215 223 222 207 229 248 253 264 264 265 271 109 107 309 319 316 328 353 15 332 165 144 143 138 141 143 145 152 155 158 161 165 163 154 152 148 150 155 156 158 161 160 156 158 159 157 160 160 158 159 159 162 165 163 159 155 156 158 159 159 159 159 157 155 156 149 134 126 119 132 161 161 149 156 219 268 318 72 48 53 69 70 58 50 61 97 92 36 10 346 323 328 330 328 318 299
226 229 227 228 219 221 233 243 256 259 263 276 258 162 177 176 305 311 292 259 244 227 146 150 148 150 155 154 158 158 159 161 163 161 156 152 146 150 155 155 159 160 156 156 158 159 159 159 158 157 157 159 163 164 162 157 155 159 159 159 160 158 159 152 149 157 168 166 147 138 158 171 179 191 200 248 259 243 273 314 15 46 72 49 28 25 18 336 319 335 330 316 311 307 310 311 299
228 237 225 224 234 240 240 236 243 253 266 276 269 202 102 105 335 283 256 216 244 290 145 151 154 156 157 155 157 160 162 159 147 137 127 106 96 126 148 154 162 158 153 156 157 158 159 158 157 156 156 161 161 154 155 156 156 158 155 158 160 155 156 154 156 167 176 182 181 190 196 182 188 214 222 255 248 244 271 279 302 308 293 312 341 330 324 322 309 309 311 309 307 299 302 301 295
222 232 227 218 225 239 254 255 251 263 278 279 291 27 28 67 305 286 278 221 290 314 138 146 147 145 149 152 156 156 146 121 88 82 81 65 39 23 24 63 174 158 152 154 154 156 156 155 155 155 155 156 150 146 150 153 153 156 155 156 157 153 156 163 173 174 170 174 185 200 190 171 194 240 221 228 226 217 233 234 266 298 288 299 321 312 307 314 317 314 309 313 316 308 310 310 306
222 226 229 219 220 225 241 256 261 269 276 277 13 29 345 319 312 297 299 325 7 98 120 130 132 131 132 118 105 99 94 85 83 106 122 120 97 70 56 60 289 229 155 152 153 154 152 153 153 152 153 151 149 150 153 155 156 161 162 157 156 163 170 177 184 177 168 175 188 196 179 182 237 250 225 227 219 208 193 193 212 224 239 282 304 282 283 292 295 299 300 306 314 312 310 312 311
216 223 232 225 227 228 232 244 251 258 258 243 248 343 307 303 306 296 292 347 77 111 115 119 119 112 99 79 66 56 76 114 122 128 118 99 115 131 138 143 276 280 168 148 149 147 145 149 152 150 151 154 155 155 157 160 163 166 165 161 159 168 178 181 178 172 169 180 190 192 193 215 243 241 239 241 232 224 217 215 222 213 219 268 285 283 294 300 295 294 293 297 308 310 308 307 309
213 218 231 231 231 236 238 245 247 250 238 188 181 215 244 255 262 280 314 359 100 107 93 81 77 62 58 61 71 68 39 48 66 74 70 61 78 94 99 72 3 326 141 125 126 133 136 144 152 152 150 155 155 154 158 160 160 161 163 164 161 159 167 163 155 160 164 174 182 188 209 231 237 244 253 249 258 250 233 233 238 238 254 272 286 300 305 302 299 303 304 311 316 315 314 312 313
237 223 226 229 231 237 242 252 254 254 238 186 169 184 211 230 234 223 243 26 80 92 84 83 86 81 78 76 89 90 62 48 61 68 69 67 65 50 37 36 26 39 87 93 108 125 134 143 156 154 147 149 148 148 152 153 150 149 153 160 158 150 157 154 145 152 157 166 182 196 216 236 243 249 257 255 279 274 248 239 236 244 267 281 296 304 305 305 311 317 320 320 320 320 320 317 318
248 242 230 224 226 231 233 243 252 254 244 183 150 170 224 230 244 233 180 97 87 88 91 100 107 115 121 115 115 114 117 112 92 91 102 102 95 84 72 63 67 77 84 97 109 122 133 144 155 148 140 143 145 145 145 148 147 140 145 155 152 144 150 151 145 150 162 174 194 210 219 233 244 241 249 282 19 1 332 276 257 276 300 304 308 312 317 324 323 321 320 315 314 318 316 315 319
247 250 246 225 221 227 224 225 243 250 237 136 117 179 244 223 235 249 157 112 105 101 105 113 115 115 118 115 110 104 106 114 116 115 111 106 106 107 100 94 102 104 104 113 120 128 137 148 151 137 133 142 144 142 138 145 149 142 143 148 145 146 153 154 152 165 180 184 200 216 211 216 233 219 220 19 16 5 360 342 306 301 311 306 306 316 318 319 321 323 324 318 315 317 316 317 320
238 246 248 226 211 220 217 210 222 237 221 148 135 219 245 227 248 252 124 118 119 124 138 137 119 112 116 119 116 111 99 104 120 119 109 104 110 114 114 119 127 125 128 134 136 139 141 146 143 127 130 141 142 143 145 149 151 147 145 146 151 158 162 163 164 176 189 185 190 201 188 188 43 60 45 345 321 331 316 283 269 266 303 315 314 316 316 324 332 328 329 327 323 322 319 320 321
218 226 232 221 211 208 215 206 205 222 218 166 162 223 231 183 331 71 121 129 135 140 149 136 121 120 124 125 121 117 116 116 122 124 120 117 121 126 128 134 138 138 140 140 139 139 136 141 140 131 137 143 144 148 152 152 146 145 152 157 164 166 162 164 164 169 184 187 174 157 139 108 70 70 355 321 298 292 294 280 266 287 343 341 317 312 323 337 332 323 328 330 327 325 320 320 321
215 203 207 213 211 201 220 217 201 209 215 182 181 210 210 156 115 104 128 133 134 134 133 125 124 125 124 121 119 119 118 119 121 127 128 126 128 133 135 138 143 146 143 139 141 143 142 146 147 145 146 148 149 153 155 150 144 151 163 166 164 156 150 154 156 160 172 181 169 143 138 138 156 169 345 334 329 330 317 310 332 333 330 330 320 321 336 344 335 331 335 334 329 324 321 321 322
217 198 197 221 211 189 207 234 210 200 204 199 193 197 149 128 127 118 134 132 126 130 135 131 127 125 125 120 120 124 125 129 130 131 132 128 129 136 139 142 149 151 146 144 149 151 149 152 155 154 153 152 154 158 157 146 141 155 162 159 154 145 141 144 151 160 161 170 169 150 151 145 154 150 95 321 348 360 331 324 15 355 335 342 349 352 358 355 349 346 340 336 331 326 326 325 324
198 193 195 229 221 200 202 219 221 195 198 202 194 193 154 127 131 126 140 134 125 134 141 136 134 129 128 128 129 134 137 142 144 139 138 135 135 141 144 146 152 152 148 148 151 152 152 154 160 161 157 154 155 159 157 145 139 150 151 145 147 143 139 139 146 151 145 155 158 150 146 116 103 98 76 47 26 28 14 11 24 19 12 13 11 9 8 360 356 354 348 347 345 341 340 336 331
202 198 198 213 220 228 212 209 221 200 193 197 191 192 165 142 146 143 147 135 122 130 136 133 135 129 130 136 139 142 144 149 150 144 142 141 141 145 147 146 149 152 152 151 152 154 156 159 164 161 154 154 157 158 157 146 134 139 145 142 144 141 138 136 139 142 140 143 136 128 118 98 86 66 66 69 61 59 53 44 38 33 30 31 26 20 17 11 10 9 3 3 2 360 359 354 344
223 202 202 210 215 239 224 212 222 202 185 195 198 199 169 152 155 150 147 135 126 134 138 137 137 131 135 141 141 147 150 146 143 144 142 140 142 145 145 142 145 149 153 155 156 157 160 164 164 154 151 158 161 158 156 148 139 144 148 143 141 141 137 136 132 133 134 129 118 112 102 89 82 79 82 84 81 76 68 59 51 43 40 41 39 33 29 25 25 23 18 17 15 10 7 5 356
239 211 200 204 205 232 237 229 225 196 178 189 195 205 174 157 158 151 147 141 146 154 150 150 144 135 138 143 144 146 143 140 141 141 138 138 141 142 140 138 142 146 153 159 158 158 160 164 162 152 154 161 160 157 156 155 154 157 151 143 143 141 137 134 126 120 116 107 102 104 99 94 95 95 91 89 83 75 68 61 54 50 48 47 45 39 36 35 32 30 27 24 21 16 10 11 10
242 229 215 210 196 213 234 243 239 196 177 184 190 202 164 151 150 146 150 145 152 161 154 156 150 142 147 150 150 146 141 146 148 142 141 144 145 144 140 138 142 147 153 158 157 156 158 161 161 156 159 162 158 156 158 159 163 161 149 143 145 140 135 130 119 111 103 95 95 100 100 101 104 94 83 79 75 71 66 61 57 56 54 50 49 42 35 34 31 29 29 26 21 16 13 17 19
239 229 226 242 212 200 210 242 246 195 174 166 168 168 115 133 131 129 150 130 130 141 137 148 151 147 152 155 150 142 141 147 145 137 141 149 148 146 143 140 141 146 151 156 155 156 158 162 163 162 164 163 157 156 156 156 158 152 140 140 142 134 130 126 118 107 99 98 99 101 96 91 91 82 75 73 67 64 64 63 61 62 59 51 49 44 36 32 30 26 26 25 22 17 12 14 16
237 229 221 240 240 222 202 227 238 187 173 134 123 98 78 141 142 139 144 118 121 128 128 138 145 137 134 135 132 127 132 140 139 133 136 149 149 145 142 139 139 144 151 156 156 157 160 164 166 165 166 162 155 154 153 150 150 146 139 138 138 129 124 126 122 112 107 107 101 92 84 77 79 77 74 70 61 59 59 58 62 66 62 51 45 44 39 34 31 29 27 25 25 21 15 14 12
241 233 222 232 248 245 218 217 208 163 190 144 122 108 308 172 136 140 138 130 132 133 140 145 141 136 131 129 132 130 133 132 127 132 140 147 145 140 138 136 138 143 151 157 157 159 163 167 168 166 164 160 153 152 152 151 149 150 147 142 137 129 122 121 121 117 113 110 101 94 89 85 85 85 84 76 64 61 54 47 54 61 58 50 43 40 38 33 29 31 31 28 27 24 22 23 17
237 226 217 230 245 256 244 226 208 163 194 183 145 136 177 333 317 272 169 143 148 143 144 147 141 143 143 139 139 139 139 132 127 134 141 146 144 140 137 135 141 147 152 158 159 159 165 169 169 166 162 157 155 154 156 155 152 153 152 146 141 135 124 116 118 120 116 112 108 102 97 94 91 91 91 80 66 60 55 45 43 50 49 43 39 37 36 33 32 33 32 34 35 30 30 31 23
232 225 221 230 238 252 256 241 225 180 164 194 172 131 121 165 226 238 202 139 145 147 147 153 149 147 149 149 147 145 143 139 137 138 141 147 144 139 139 141 148 153 153 157 160 159 162 165 167 168 162 156 156 157 157 156 154 153 150 142 138 134 124 118 121 122 118 116 111 104 98 93 91 92 88 77 63 56 56 44 33 40 43 39 40 42 42 40 41 40 35 36 38 35 36 35 30
225 228 231 238 237 244 253 259 260 192 150 204 202 130 111 175 194 198 173 149 160 161 160 163 157 151 154 157 152 147 145 143 140 139 141 145 142 141 145 148 153 155 153 153 156 157 158 161 166 169 164 158 156 155 155 155 153 152 149 139 130 127 123 123 126 123 120 117 110 105 99 90 85 83 75 67 56 51 58 49 40 48 50 50 49 45 49 49 44 41 36 32 31 34 39 38 35
211 227 236 244 240 241 251 265 283 207 170 205 207 165 130 148 185 180 159 167 182 170 166 166 160 158 160 159 153 148 146 146 144 144 146 147 148 150 150 149 151 153 151 147 149 155 156 160 166 165 161 159 156 153 154 153 150 148 146 137 128 127 129 128 126 123 120 116 108 103 97 91 83 70 65 72 68 63 64 60 55 54 52 58 55 47 55 55 45 41 37 34 37 40 41 40 39
196 224 240 245 243 254 274 257 277 62 228 226 197 176 155 137 193 188 177 186 183 167 160 161 160 160 158 156 154 152 150 150 148 147 145 144 146 148 147 146 147 149 147 144 148 155 156 159 162 157 154 153 148 144 141 139 139 138 136 133 129 131 133 129 123 120 117 109 100 97 95 95 89 77 72 76 76 69 63 65 63 56 57 62 57 52 58 57 51 46 42 44 50 50 44 42 42
199 213 221 236 253 309 295 272 157 130 257 259 206 180 168 162 195 199 202 195 175 165 162 162 161 157 153 156 156 154 150 147 147 144 140 140 141 141 142 144 145 145 145 145 150 155 154 152 150 146 144 143 140 136 130 128 130 130 130 130 129 130 129 124 118 114 109 102 98 101 104 102 97 88 78 72 70 64 58 64 64 59 60 60 57 56 58 57 55 48 45 51 54 51 45 43 43
208 208 190 192 195 212 231 240 211 189 244 243 199 183 190 187 181 190 200 192 170 171 167 160 159 152 152 159 154 149 147 144 145 143 141 142 140 142 146 146 146 147 146 145 148 149 145 142 139 137 136 135 134 132 128 126 126 128 130 129 127 126 123 119 115 112 108 107 109 112 109 104 96 87 81 77 73 65 59 63 65 61 61 60 59 61 60 59 57 50 51 56 53 49 47 45 43
204 207 172 167 167 187 214 202 166 193 260 251 192 170 204 257 171 185 189 182 173 174 163 155 155 151 153 157 149 145 147 146 145 143 143 141 141 146 149 147 147 146 144 144 145 143 139 137 134 131 130 131 131 129 128 126 125 127 130 129 127 125 121 117 116 116 115 114 114 113 106 98 91 87 86 87 83 73 63 63 65 63 64 63 60 63 64 63 58 54 56 58 53 51 50 47 45
202 210 170 179 182 170 194 165 140 190 246 283 256 154 205 241 190 185 184 178 168 162 151 148 147 145 147 149 146 147 148 145 142 142 142 140 144 147 145 143 144 143 143 144 142 139 136 134 132 130 130 132 133 132 131 128 126 128 130 131 131 128 124 122 119 120 122 120 118 115 104 93 93 92 89 93 91 79 68 66 66 64 66 66 61 62 65 62 57 57 62 61 56 52 48 45 46
200 210 187 221 220 150 151 157 152 160 181 307 315 179 215 242 180 170 168 164 156 147 140 141 142 143 145 148 151 150 146 143 144 143 141 143 146 144 140 140 141 142 144 143 139 136 135 133 133 133 133 135 136 135 133 131 130 130 131 132 132 130 128 125 121 118 119 123 127 123 113 107 106 99 88 88 88 80 73 72 69 68 72 70 64 63 64 61 60 62 62 59 56 52 46 45 45
191 210 200 228 234 137 121 152 128 99 111 270 259 247 354 6 35 145 155 154 152 147 141 142 146 147 148 154 155 151 145 145 146 144 143 145 144 141 140 141 142 144 144 141 138 137 137 136 136 135 134 134 135 133 132 132 131 130 131 132 133 133 133 130 127 123 121 125 129 125 120 116 111 102 93 88 87 84 80 77 73 73 78 75 69 66 65 63 61 61 56 51 54 54 51 52 49
174 202 210 227 239 176 114 128 92 95 138 268 256 226 239 103 14 317 160 149 147 148 142 142 147 150 153 155 153 149 145 144 145 142 142 141 140 140 142 142 143 145 142 139 138 139 138 137 137 135 134 134 136 135 133 132 130 127 126 126 126 128 129 130 132 129 126 128 128 126 123 117 110 104 100 95 91 88 84 80 76 76 81 82 77 73 71 66 61 60 56 54 59 59 57 55 51
192 177 193 188 187 214 108 126 156 155 164 295 276 240 228 150 158 206 182 150 142 144 141 144 153 157 155 150 148 146 144 144 144 143 142 141 140 142 142 142 142 141 139 138 138 137 136 135 134 133 133 134 135 134 132 131 130 127 124 122 121 123 124 125 127 129 130 130 129 128 124 118 112 106 103 99 93 87 84 82 79 79 83 85 83 79 75 70 65 62 61 60 61 58 55 52 48
217 173 193 194 157 166 160 148 160 160 165 220 261 245 251 200 167 170 168 151 143 145 145 152 161 160 152 148 149 148 147 148 147 146 145 143 142 142 142 143 141 139 139 138 136 135 134 132 131 131 130 131 132 131 131 131 131 128 127 125 126 131 130 128 129 132 133 131 128 125 121 115 111 106 103 98 91 86 85 84 82 83 86 89 87 80 74 72 69 66 64 62 60 57 54 52 49
205 185 192 198 177 134 133 219 189 148 152 179 193 239 265 240 180 163 156 151 151 151 152 159 162 154 149 151 151 152 153 151 148 147 146 144 143 142 142 141 139 138 139 137 135 134 134 133 132 131 130 132 134 133 132 132 132 131 131 129 128 131 131 129 131 132 131 128 124 122 118 114 110 105 101 96 90 86 84 82 83 87 92 95 89 80 74 73 70 68 67 64 61 59 58 56 52
186 190 195 185 176 131 112 283 252 156 145 164 163 216 272 267 197 161 148 151 157 154 155 162 158 150 152 155 155 155 154 149 147 147 145 144 143 142 140 138 139 139 138 136 135 135 136 135 135 134 135 137 138 136 135 136 136 135 132 129 128 130 131 131 129 128 127 125 123 121 117 113 108 104 100 96 91 87 82 79 82 91 100 100 91 83 81 78 72 70 69 66 64 63 62 58 53